Tracking 30260 objects as of 15-Feb-2025
HD Live streaming from Space Station
objects crossing your sky now

STARLINK-32739

Track STARLINK-32739 now!
10-day predictions
STARLINK-32739 is classified as:


NORAD ID: 62498
Int'l Code: 2025-003M
Perigee: 450.3 km
Apogee: 452.0 km
Inclination: 43.0 °
Period: 93.5 minutes
Semi major axis: 6822 km
RCS: Unknown
Launch date: January 6, 2025
Source: United States (US)
Launch site: AIR FORCE EASTERN TEST RANGE (AFETR)
Your satellite tracking list
Your tracking list is empty




NASA's NSSDC Master Catalog

Two Line Element Set (TLE):
1 62498U 25003M   25045.82388477  .00002284  00000-0  61898-4 0  9994
2 62498  43.0032 321.9287 0001268 261.0012  99.0701 15.40713075  7279
Source of the keplerian elements: AFSPC